www.pogodaiklimat.ru

Погода и климат >> Архив погоды >> Австрия >> Амштеттен


ПОГОДА в Амштеттене

  • Прогноз погоды в Амштеттене
  • Монитор погоды в Амштеттене

АРХИВ ПОГОДЫ в Амштеттене

Время (UTC), дата Ветер
(напр.,м/с)
 
Видим.   Явления Облачность Т
(С)
Тd
(С)
f
(%)
Тe
(С)
Тes
(С)
Комфортность P
(гПа)
Po
(гПа)
Тmin
(С)
Tmax
(С)
R
(мм)
R24
(мм)
S
(см)
10 17.06 В 3 н/о н/о +23.3 +13.5 54 +27 +27 душно 1020.0 989.7
11 17.06 В 4 н/о н/о +23.7 +13.5 53 +26 +26 жарко 1019.8 989.5 0.0
12 17.06 В 4 н/о н/о +24.7 +13.7 50 +27 +27 жарко 1019.1 989.0 0.0
13 17.06 В 4 н/о н/о +24.9 +12.9 47 +27 +27 жарко 1018.7 988.6
14 17.06 В 5 н/о н/о +25.2 +13.5 48 +27 +27 жарко 1018.2 988.1
15 17.06 В 4 н/о н/о +25.0 +13.6 49 +27 +27 жарко 1017.5 987.4
16 17.06 В 4 н/о н/о +24.3 +13.4 51 +27 +27 жарко 1017.2 987.1
17 17.06 В 3 н/о н/о +24.0 +13.4 51 +26 +26 жарко 1017.2 987.0
18 17.06 В 3 н/о н/о +23.2 +14.0 56 +27 +27 душно 1017.0 986.8 +19.4 +25.5 0.0
19 17.06 В 3 н/о н/о +22.3 +13.9 59 +25 +25 комфорт 1017.2 986.9
20 17.06 В 2 н/о н/о +21.2 +14.0 63 +24 +24 комфорт 1017.9 987.4
21 17.06 В 2 н/о н/о +20.6 +14.0 66 +24 +24 комфорт 1018.0 987.5
22 17.06 В 2 н/о н/о +20.1 +14.0 68 +23 +23 комфорт 1018.0 987.4
23 17.06 В 2 н/о н/о +19.7 +13.9 69 +22 +22 комфорт 1017.9 987.3
00 18.06 В 2 н/о н/о +19.7 +13.7 68 +22 +22 комфорт 1017.7 987.1
01 18.06 В 3 н/о н/о +19.2 +13.5 70 +21 +21 комфорт 1017.1 986.5
02 18.06 В 3 н/о н/о +18.7 +13.3 71 +20 +20 1016.9 986.2
03 18.06 В 2 н/о н/о +18.0 +13.1 73 +19 +19 1016.8 986.0
04 18.06 В 2 н/о н/о +18.1 +12.9 72 +19 +19 1017.1 986.3
05 18.06 В 3 н/о н/о +19.5 +12.6 64 +21 +21 комфорт 1016.9 986.3
06 18.06 В 4 н/о н/о +19.8 +12.7 64 +22 +22 комфорт 1017.1 986.5 +17.9 +23.3
07 18.06 В 4 н/о н/о +21.1 +13.2 61 +23 +23 комфорт 1016.9 986.5
08 18.06 В 5 н/о н/о +22.3 +13.4 57 +25 +25 комфорт 1016.7 986.4
09 18.06 В 4 н/о н/о +23.9 +14.4 55 +26 +26 жарко 1016.0 985.9
10 18.06 В 4 н/о н/о +25.1 +14.5 52 +28 +28 жарко 1015.4 985.4 0.0
11 18.06 В 5 н/о н/о +26.2 +15.0 50 +29 +29 жарко 1014.7 984.9
12 18.06 В 4 н/о н/о +26.9 +14.9 48 +30 +30 душно 1014.3 984.5 0.0
13 18.06 В 4 н/о н/о +27.7 +15.3 47 +31 +31 душно 1013.7 984.0
14 18.06 В 4 н/о н/о +27.4 +14.7 46 +30 +30 жарко 1013.2 983.5
15 18.06 В 2 н/о н/о +26.5 +15.5 51 +30 +30 душно 1013.1 983.3
16 18.06 В 2 н/о н/о +26.2 +14.9 50 +29 +29 жарко 1012.8 983.0
17 18.06 В 2 н/о н/о +26.4 +15.0 50 +29 +29 жарко 1012.7 982.9
18 18.06 В 2 н/о н/о +25.9 +14.9 51 +29 +29 душно 1012.4 982.6 +19.7 +28.2
19 18.06 В 2 н/о н/о +24.8 +15.1 55 +28 +28 жарко 1012.6 982.7
20 18.06 В 2 н/о н/о +23.2 +15.2 61 +27 +27 душно 1013.2 983.1
21 18.06 ЮВ 1 н/о н/о +21.4 +15.2 68 +25 +25 комфорт 1013.4 983.1
22 18.06 В 2 н/о н/о +20.4 +15.5 73 +24 +24 комфорт 1013.4 983.0
23 18.06 СВ 1 н/о н/о +18.8 +15.2 80 +21 +21 комфорт 1013.2 982.7
00 19.06 штиль 0 н/о н/о +17.2 +14.5 84 +17 +17 1013.7 983.0
01 19.06 С 1 н/о н/о +16.6 +14.1 85 +17 +17 1013.4 982.6
02 19.06 штиль 0 н/о н/о +16.2 +13.9 86 +16 +16 1013.4 982.6
03 19.06 З 1 н/о н/о +15.5 +13.6 88 +16 +16 1013.6 982.7
04 19.06 З 2 н/о н/о +15.7 +14.0 90 +16 +16 1013.9 983.0
05 19.06 СЗ 1 н/о н/о +18.6 +14.8 79 +20 +20 1013.7 983.1
06 19.06 ЮЗ 1 н/о н/о +19.9 +15.4 75 +23 +23 комфорт 1013.4 983.0 +14.5 +26.1
07 19.06 ЮЗ 1 н/о н/о +22.4 +15.1 63 +26 +26 жарко 1013.1 982.9
08 19.06 ЮЗ 1 н/о н/о +24.1 +15.4 58 +27 +27 жарко 1012.6 982.6
09 19.06 З 2 н/о н/о +26.3 +14.4 48 +29 +29 жарко 1011.9 982.1
10 19.06 Ю 1 н/о н/о +27.4 +15.1 47 +30 +30 жарко 1011.1 981.5 0.0
11 19.06 ЮВ 1 н/о н/о +28.4 +14.8 43 +31 +31 душно 1010.5 981.0
12 19.06 З 2 н/о н/о +29.8 +12.6 35 +31 +31 жарко 1009.8 980.4 0.0
13 19.06 З 1 н/о н/о +30.6 +13.2 35 +32 +32 жарко 1009.2 979.9
14 19.06 ЮЗ 1 н/о н/о +29.6 +12.0 34 +30 +30 жарко 1009.1 979.7
15 19.06 СЗ 2 н/о н/о +29.4 +12.6 36 +31 +31 жарко 1008.6 979.2
16 19.06 ЮЗ 3 н/о н/о +28.7 +14.4 42 +31 +31 жарко 1009.0 979.6
17 19.06 Ю 3 н/о н/о +26.6 +14.9 49 +29 +29 жарко 1008.9 979.3
18 19.06 Ю 1 н/о н/о +25.6 +14.9 52 +28 +28 жарко 1009.8 980.0 +19.8 +30.6 0.0
19 19.06 ЮЗ 3 н/о н/о +24.2 +12.6 48 +26 +26 жарко 1009.8 979.9
20 19.06 В 1 н/о н/о +21.1 +14.3 65 +24 +24 комфорт 1011.0 980.7
21 19.06 СВ 1 н/о н/о +20.4 +14.8 70 +24 +24 комфорт 1011.3 981.0
22 19.06 В 2 н/о н/о +19.8 +13.7 68 +22 +22 комфорт 1011.2 980.8
23 19.06 В 2 н/о н/о +19.2 +14.2 73 +21 +21 комфорт 1011.4 980.9
00 20.06 В 1 н/о н/о +18.2 +14.0 76 +20 +20 1011.4 980.8
01 20.06 штиль 0 н/о н/о +16.6 +14.2 86 +16 +16 1011.6 980.9
02 20.06 штиль 0 н/о н/о +15.7 +13.8 88 +15 +15 1011.3 980.5
03 20.06 штиль 0 н/о н/о +14.3 +12.6 90 +14 +14 1011.9 980.9
04 20.06 З 2 н/о н/о +14.8 +12.8 88 +14 +14 1012.4 981.4
05 20.06 З 2 н/о н/о +17.8 +13.5 76 +18 +18 1013.1 982.4
06 20.06 ЮЗ 1 н/о н/о +19.9 +14.3 70 +23 +23 комфорт 1013.0 982.6 +13.8 +26.0
07 20.06 З 1 н/о н/о +22.8 +14.7 60 +26 +26 жарко 1012.6 982.5
08 20.06 СЗ 3 н/о н/о +24.4 +15.0 56 +27 +27 жарко 1012.5 982.5
09 20.06 З 3 н/о н/о +25.7 +15.2 52 +29 +29 душно 1012.3 982.5
10 20.06 З 2 н/о н/о +27.1 +13.9 44 +29 +29 жарко 1012.2 982.5
11 20.06 З 3 н/о н/о +27.5 +13.9 43 +30 +30 жарко 1011.8 982.2
12 20.06 З 2 н/о н/о +28.8 +13.4 39 +30 +30 жарко 1011.0 981.5
13 20.06 З 2 н/о н/о +29.3 +13.6 38 +31 +31 жарко 1010.3 980.9
14 20.06 СЗ 2 н/о н/о +29.8 +13.1 36 +31 +31 жарко 1009.7 980.3
15 20.06 З 2 н/о н/о +28.7 +12.8 38 +30 +30 жарко 1009.4 979.9
16 20.06 СЗ 1 н/о н/о +29.7 +11.4 32 +30 +30 жарко 1009.3 979.9
17 20.06 В 1 н/о н/о +28.3 +14.6 43 +31 +31 душно 1010.3 980.8 0.0
18 20.06 В 3 н/о н/о +26.4 +14.2 47 +29 +29 жарко 1010.8 981.1 +19.5 +30.2 0.0
19 20.06 З 3
{16}
н/о н/о +16.8 +15.5 92 +17 +17 1016.4 985.6 26
20 20.06 СЗ 2 н/о н/о +17.2 +15.6 90 +18 +18 1017.5 986.7 5
21 20.06 штиль 0
{16}
н/о в посл. час осадки н/о +17.2 +15.9 92 +17 +17 1017.2 986.4 32
22 20.06 З 1 н/о в посл. час осадки н/о +17.0 +16.0 94 +18 +18 1016.8 986.0 0.1
23 20.06 З 1 н/о н/о +16.9 +15.8 93 +18 +18 1016.6 985.8
00 21.06 З 1
{16}
н/о {ливн. осадки} н/о +15.9 +15.1 95 +17 +17 1016.8 985.8 32
01 21.06 З 1 н/о н/о +15.7 +14.7 94 +16 +16 1017.2 986.2
02 21.06 З 1 н/о н/о +15.3 +14.4 94 +16 +16 1017.2 986.2
03 21.06 ЮЗ 1 н/о н/о +15.0 +14.1 94 +15 +15 1017.5 986.4
04 21.06 СЗ 1 н/о н/о +15.3 +14.4 94 +16 +16 1017.9 986.8
05 21.06 СЗ 1 н/о н/о +17.0 +15.2 89 +18 +18 1017.7 986.8
06 21.06 ЮЗ 2
{16}
н/о н/о +18.4 +15.1 81 +19 +19 1017.7 987.0 +14.8 +27.0 32
07 21.06 З 2 н/о н/о +19.7 +15.4 76 +22 +22 комфорт 1018.0 987.4
08 21.06 З 1 н/о н/о +21.4 +15.8 70 +25 +25 комфорт 1017.8 987.4
09 21.06 З 2 н/о н/о +22.5 +15.7 65 +26 +26 жарко 1017.7 987.4
10 21.06 З 1 н/о н/о +23.7 +15.0 58 +27 +27 жарко 1017.3 987.1
11 21.06 З 2 н/о н/о +24.8 +14.7 53 +27 +27 жарко 1017.1 987.0
12 21.06 З 2 н/о н/о +25.2 +15.0 53 +28 +28 жарко 1016.5 986.5
13 21.06 В 1 н/о н/о +25.8 +15.4 53 +29 +29 душно 1015.8 985.9
14 21.06 ЮВ 1 н/о н/о +26.3 +14.1 47 +29 +29 жарко 1015.1 985.2
15 21.06 ЮЗ 2 н/о н/о +27.0 +13.6 44 +29 +29 жарко 1014.7 984.9
16 21.06 СВ 1 н/о н/о +27.3 +13.9 44 +29 +29 жарко 1014.3 984.6
17 21.06 СВ 1 н/о н/о +28.2 +9.6 31 +28 +28 жарко 1014.5 984.8
18 21.06 штиль 0 н/о н/о +24.0 +13.7 53 +26 +26 жарко 1015.2 985.1 +17.9 +28.4
19 21.06 З 1 н/о н/о +22.4 +16.4 69 +27 +27 душно 1015.9 985.7
20 21.06 З 1 н/о н/о +21.0 +16.9 77 +26 +26 душно 1016.8 986.4
21 21.06 ЮЗ 1 н/о н/о +20.8 +16.6 77 +25 +25 комфорт 1017.3 986.9
22 21.06 З 2 н/о н/о +20.9 +15.4 71 +25 +25 комфорт 1017.8 987.3
23 21.06 З 2 н/о н/о +20.7 +15.7 73 +24 +24 комфорт 1018.2 987.7
00 22.06 З 2 н/о н/о +19.6 +15.8 79 +22 +22 комфорт 1018.6 988.0 0.0
01 22.06 З 2 н/о н/о +19.3 +15.6 79 +22 +22 комфорт 1018.4 987.8
02 22.06 СЗ 2 н/о н/о +18.6 +15.9 84 +20 +20 1018.3 987.6
03 22.06 Ю 1 н/о н/о +17.7 +16.1 90 +19 +19 1018.3 987.5
04 22.06 СВ 1 н/о н/о +17.9 +15.9 88 +19 +19 1018.3 987.5 0.0
05 22.06 В 1 н/о н/о +18.5 +16.0 85 +20 +20 1018.2 987.5
06 22.06 В 2 н/о н/о +18.9 +16.2 84 +21 +21 комфорт 1018.3 987.6 +17.6 +24.6 0.0
07 22.06 В 4 н/о н/о +20.9 +16.4 75 +25 +25 комфорт 1018.0 987.5
08 22.06 В 5 н/о н/о +21.1 +16.5 75 +25 +25 комфорт 1017.8 987.4
09 22.06 В 6 н/о н/о +21.8 +16.6 72 +26 +26 душно 1017.4 987.1
10 22.06 В 6
{13}
н/о н/о +22.2 +16.8 71 +27 +27 душно 1016.8 986.5
11 22.06 В 6
{13}
н/о н/о +22.7 +16.8 69 +27 +27 душно 1016.6 986.4
12 22.06 В 6
{13}
н/о н/о +23.3 +16.7 66 +28 +28 душно 1015.7 985.6 0.0
13 22.06 В 4
{14}
н/о н/о +23.5 +16.8 66 +27 +27 душно 1015.2 985.1
14 22.06 В 6 н/о н/о +24.1 +16.1 61 +27 +27 жарко 1014.6 984.6
15 22.06 В 5
{14}
н/о н/о +24.1 +16.1 61 +27 +27 жарко 1014.1 984.1
16 22.06 В 4 н/о н/о +24.2 +15.6 59 +27 +27 жарко 1013.6 983.6
17 22.06 В 2 н/о в посл. час осадки н/о +20.8 +16.5 76 +25 +25 комфорт 1014.0 983.7 0.0
18 22.06 СВ 1
{14}
н/о в посл. час осадки н/о +20.0 +16.1 78 +24 +24 комфорт 1014.0 983.6 +18.7 +24.4 0.0
19 22.06 СВ 2 н/о н/о +19.8 +16.1 79 +23 +23 комфорт 1014.1 983.6 0.0
20 22.06 В 3 н/о н/о +19.7 +16.7 83 +22 +22 комфорт 1014.1 983.6 0.0
21 22.06 В 4 н/о н/о +19.8 +15.8 78 +22 +22 комфорт 1014.7 984.2 0.0
22 22.06 В 3 н/о н/о +19.4 +15.5 78 +21 +21 комфорт 1015.1 984.6
23 22.06 В 2 н/о н/о +19.1 +15.4 79 +21 +21 комфорт 1015.0 984.4
00 23.06 ЮВ 2 н/о н/о +18.8 +15.8 83 +20 +20 1015.3 984.7 0.0
01 23.06 ЮВ 2 н/о н/о +18.6 +15.8 84 +20 +20 1015.3 984.7
02 23.06 СВ 1 н/о н/о +18.7 +16.1 85 +21 +21 комфорт 1015.4 984.8
03 23.06 Ю 1 н/о н/о +18.6 +16.4 87 +21 +21 комфорт 1015.5 984.9
04 23.06 штиль 0 н/о н/о +18.5 +16.3 87 +19 +19 1015.9 985.3
05 23.06 З 1 н/о н/о +17.3 +16.3 94 +18 +18 1016.5 985.7 8
06 23.06 З 1 н/о {ливн. осадки} н/о +17.2 +16.1 93 +18 +18 1017.0 986.2 +16.9 +20.2 16
07 23.06 З 1 н/о в посл. час осадки н/о +17.6 +16.2 91 +19 +19 1017.2 986.4 0.1
08 23.06 З 2 н/о осадки н/о +18.3 +16.5 89 +19 +19 1017.4 986.7 0.1
09 23.06 ЮЗ 1 н/о осадки {ливн. осадки} н/о +18.3 +16.9 92 +20 +20 1017.6 986.9 4
10 23.06 З 1 н/о ливневой дождь {осадки} н/о +18.6 +17.4 93 +21 +21 комфорт 1018.0 987.3 4
11 23.06 СЗ 1 н/о ливневой дождь н/о +20.0 +17.8 87 +24 +24 комфорт 1017.9 987.4 0.7
12 23.06 СЗ 2 н/о {ливн. осадки} н/о +20.4 +18.0 86 +25 +25 комфорт 1018.0 987.5 8
13 23.06 СЗ 2 н/о в посл. час осадки н/о +20.2 +17.5 84 +24 +24 комфорт 1018.3 987.8 0.0
14 23.06 Ю 2 н/о н/о +20.8 +18.2 85 +26 +26 душно 1018.1 987.7
15 23.06 Ю 2 н/о {осадки} н/о +22.2 +17.3 74 +27 +27 душно 1017.7 987.4 0.0
16 23.06 З 1 н/о в посл. час осадки н/о +22.0 +18.0 78 +27 +27 душно 1017.8 987.5 0.5
17 23.06 ЮВ 2 н/о в посл. час осадки н/о +18.0 +16.4 90 +19 +19 1018.9 988.1 0.7
18 23.06 СЗ 1 н/о {ливн. осадки} н/о +18.3 +17.1 93 +20 +20 1019.1 988.4 +17.0 +22.4 9
19 23.06 З 1 н/о н/о +18.3 +17.3 94 +20 +20 1019.5 988.7
20 23.06 З 1 н/о н/о +18.4 +17.4 94 +20 +20 1020.3 989.5
21 23.06 З 1 н/о н/о +18.5 +17.4 93 +20 +20 1020.7 989.9
22 23.06 ЮЗ 1 н/о н/о +18.4 +16.9 91 +20 +20 1021.0 990.2
23 23.06 З 1 н/о н/о +18.1 +17.1 94 +19 +19 1020.9 990.1
00 24.06 СЗ 1 н/о н/о +17.6 +16.8 95 +19 +19 1021.0 990.1
01 24.06 З 1 н/о н/о +16.8 +16.2 96 +18 +18 1021.5 990.5
02 24.06 штиль 0 н/о н/о +16.3 +15.7 96 +16 +16 1021.8 990.7
03 24.06 ЮЗ 1 н/о н/о +17.2 +16.9 98 +18 +18 1021.6 990.7
04 24.06 З 1 н/о н/о +17.2 +16.8 97 +18 +18 1021.7 990.8
05 24.06 штиль 0 н/о н/о +17.4 +16.3 93 +17 +17 1022.0 991.1
06 24.06 ЮВ 1 н/о н/о +17.4 +16.3 93 +18 +18 1022.4 991.4 +16.3 +18.6
07 24.06 ЮЗ 1 н/о н/о +19.2 +17.0 87 +22 +22 комфорт 1022.3 991.5
08 24.06 В 1 н/о н/о +21.5 +15.2 67 +25 +25 комфорт 1022.0 991.5
09 24.06 ЮВ 1 н/о н/о +22.8 +14.2 58 +26 +26 жарко 1021.8 991.4 0.0

 

Местоположение метеостанции Амштеттен (Австрия): широта 48.10 долгота 14.90 высота над уровнем моря 271 м.

В архиве по умолчанию представлена погода в Амштеттене за последнюю неделю. Архивные данные за месяц целиком и за предыдущие месяцы, начиная с января 2011 года, Вы можете получить, выбрав интересующий диапазон дат из раскрывающегося списка и нажав кнопку "Ввод!".


*Определитесь, кто Вы:
робот инопланетянин человек

Внимание! Время в таблицах - всемирное. Для получения местного времени необходимо прибавить поправку, которая равна 1 ч.

Смотрите также архив погоды в соседних городах и на ближайших метеорологических станциях:

Погода в Вайдхофен-ан-дер-Ибсе (Австрия) (18 км)
Погода в Вайдхофен-ан-дер-Ибсе (Австрия) (18 км)
Погода в Лунце (Австрия) (31 км)
Погода в Бернкопфе (Австрия) (33 км)
Погода в Яуерлинге (Австрия) (41 км)
Погода в Санкт-Себастьяне (Австрия) (45 км)
Погода в Линце город (Австрия) (51 км)
Погода в Лилиенфельде (Австрия) (51 км)
Погода в Санкт-Пёльтене (Австрия) (55 км)
Погода в Линце (Австрия) (55 км)

Пояснения к столбцам:

Ветер - указаны скорость ветра в м/с - средняя за 10 мин, порывы в срок и между сроками (в фигурных скобках) и направление, откуда дует ветер: С - северный, СВ - северо-восточный, В - восточный, ЮВ - юго-восточный, Ю - южный, ЮЗ - юго-западный, З - западный, СЗ - северо-западный.
Видимость - горизонтальная дальность видимости в метрах или километрах. При видимости от 1 до 10 км при отсутствии осадков обычно наблюдается дымка, при ухудшении видимости до 1 км и менее - туман. В сухую погоду видимость может ухудшаться дымом, пылью или мглою.
Явления - указаны атмосферные явления, наблюдавшиеся в срок или в последний час перед сроком; фигурными скобками обозначены явления, наблюдавшиеся между сроками (за 1-3 часа до срока); квадратными скобками обозначены град или гололедные отложения с указанием их диаметра в мм.
Облачность - указаны через наклонную черту общая и нижняя облачность в баллах и высота нижней границы облаков в метрах; квадратными скобками обозначены формы облаков: Ci - перистые, Cs - перисто-слоистые, Cc - перисто-кучевые, Ac - высококучевые, As - высокослоистые, Sc - слоисто-кучевые, Ns - слоисто-дождевые, Cu - кучевые, Cb - кучево-дождевые. Подробнее классификацию облаков см. в Атласе облаков (PDF).
T - Температура воздуха - температура, измеренная на высоте 2 м над землей.
Td - Температура точки росы - температура, при понижении до которой содержащийся в воздухе водяной пар достигнет насыщения.
f - Относительная влажность воздуха - влажноcть воздуха, измеренная на высоте 2 м над землей.
Te - Эффективная температура - температура, которую ощущает одетый по сезону человек в тени. Характеристика душности погоды. При расчете учитывается влияние влажности воздуха и скорости ветра на теплоощущения человека.
Tes - Эффективная температура на солнце - температура, которую ощущает человек, с поправкой на солнечный нагрев. Характеристика знойности погоды. Зависит от высоты солнца над горизонтом, облачности и скорости ветра. Ночью, в пасмурную погоду, а также при ветре 12 м/с и более поправка равна нулю.
P - Атмосферное давление - приведенное к уровню моря атмосферное давление.
Po - Атмосферное давление - измеренное на уровне метеостанции атмосферное давление.
Tmin - Минимальная температура - минимум температуры воздуха на высоте 2 м над землей.
Tmax - Максимальная температура - максимум температуры воздуха на высоте 2 м над землей.
R - Количество осадков - Количество выпавших осадков за период времени, мм. При наведении курсора мыши на число - период времени, за который выпало указанное количество осадков.
R24 - Количество осадков - Количество выпавших осадков за 24 часа, мм.
S - Снежный покров - Высота снежного покрова, см. При наведении курсора мыши на число - состояние снежного покрова и степень покрытия местности в баллах.